[[{"header":{"parameterUnit":"m.s-1","parameterCategory":1,"la1":30.2991,"la2":30.254,"lo1":-89.0895,"lo2":-89.0444,"dy":0.0017,"dx":0.0017,"nx":28,"ny":28,"refTime":"2025-08-29T09:00:00:Z","depth":0,"parameterNumber":2,"parameterNumberName":"U-component_of_WINDS"},"data":[0,0,0,0,0,0,0,0,0,0,0,0,0,0,0,0,0,0,0,0,0,0,0,0,0,0,0,0,0,0,0,0,0,0,0,0,0,0,0,0,0,0,0,0,0,0,0,0,0,0,0,0,0,0,0,0,0,0,-4.0493,-4.0494,0,-4.0588,-4.0589,-4.0591,-4.0564,-4.0562,-4.056,-4.0558,-4.0648,-4.0652,-4.0656,0,0,0,0,0,0,0,0,0,0,0,0,0,-4.028,-4.0284,-4.0493,-4.0494,-4.0495,-4.0588,-4.059,-4.0591,-4.0564,-4.0562,-4.056,-4.0558,-4.0647,-4.0652,-4.0657,0,0,0,0,0,0,0,0,0,0,0,0,0,-4.0374,-4.0286,-4.0492,-4.0493,-4.0494,-4.0588,-4.059,-4.0591,-4.0565,-4.0562,-4.0559,-4.0556,-4.0645,-4.0651,-4.0657,-4.0753,0,0,-4.0676,-4.0679,0,0,0,0,0,0,0,0,-4.0368,-4.0381,-4.0492,-4.0493,-4.0495,-4.0562,-4.0548,-4.0645,-4.0566,-4.0538,-4.0558,-4.0555,-4.0621,-4.0629,-4.0653,-4.0758,-4.0761,-4.0677,-4.0681,-4.0684,-4.0685,0,0,0,0,0,0,0,-4.0362,-4.0377,-4.053,-4.0494,-4.0495,-4.0487,-4.0497,-4.0566,-4.0594,-4.054,-4.0538,-4.0551,-4.0621,-4.0647,-4.0655,-4.0763,-4.0677,-4.0682,-4.0686,-4.0689,-4.0952,-4.0955,0,0,0,0,0,0,-4.0355,-4.0372,-4.0527,-4.0533,-4.0424,-4.0493,-4.0504,-4.0543,-4.0593,-4.0598,-4.0553,-4.0549,-4.0638,-4.0648,-4.0658,-4.0775,-4.0683,-4.0689,-4.0693,-4.0949,-4.0953,-4.0956,0,0,0,0,0,0,-4.0351,-4.037,-4.0523,-4.0452,-4.0471,-4.05,-4.0543,-4.0546,-4.0572,-4.0603,-4.0607,-4.0575,-4.0636,-4.0649,-4.0731,-4.0777,-4.0692,-4.0698,-4.0945,-4.095,-4.0955,-4.1008,0,0,0,0,0,0,-4.0345,-4.0368,-4.0406,-4.0453,-4.0475,-4.0596,-4.0546,-4.055,-4.0584,-4.058,-4.0625,-4.0629,-4.0635,-4.0722,-4.0737,-4.0784,-4.0703,-4.0941,-4.0947,-4.0953,-4.1002,-4.1014,-4.1024,0,0,0,0,0,-4.0338,-4.0415,-4.0408,-4.0427,-4.0524,-4.0599,-4.0611,-4.0618,-4.0588,-4.0626,-4.0646,-4.0628,-4.077,-4.073,-4.0747,-4.0797,-4.0938,-4.0946,-4.0953,-4.0997,-4.1012,-4.1024,0,0,0,0,0,0,-4.0368,-4.0421,-4.0414,-4.051,-4.0551,-4.0595,-4.0642,-4.0633,-4.0681,-4.0675,-4.0679,-4.069,-4.0774,-4.0793,-4.0748,-4.0894,-4.0849,-4.086,-4.0877,-4.0891,-4.0902,-4.0895,-4.0708,0,0,0,0,0,-4.0387,-4.0447,-4.0488,-4.0568,-4.059,-4.0613,-4.0646,-4.0649,-4.069,-4.0706,-4.0732,-4.0771,-4.0824,-4.0859,-4.091,-4.1006,-4.1015,-4.1048,-4.1059,-4.1068,-4.1077,-4.113,-4.1145,-4.098,-4.098,-4.098,0,0,-4.0424,-4.0461,-4.0497,-4.0576,-4.0608,-4.0667,-4.0627,-4.0691,-4.0735,-4.0714,-4.0794,-4.0815,-4.0858,-4.0948,-4.0989,-4.0967,-4.1125,-4.1078,-4.1085,-4.1089,-4.1139,-4.1155,-4.1169,-4.0985,-4.0985,-4.0984,0,0,-4.0523,-4.0557,-4.0629,-4.0663,-4.0713,-4.0729,-4.0746,-4.0793,-4.0807,-4.0888,-4.0874,-4.0925,-4.1017,-4.105,-4.1078,-4.1193,-4.1178,-4.1209,-4.1266,-4.1318,-4.1331,-4.1342,-4.1383,-4.1398,-4.1219,-4.1219,-4.1219,0,-4.0562,-4.0654,-4.0665,-4.0732,-4.0767,-4.0756,-4.0827,-4.0859,-4.0922,-4.0945,-4.0922,-4.1039,-4.1067,-4.1164,-4.1193,-4.1217,-4.1235,-4.1203,-4.1329,-4.134,-4.1351,-4.139,-4.1405,-4.1222,-4.1222,-4.1221,-4.1221,0,-4.07,-4.0764,-4.0815,-4.0881,-4.0922,-4.099,-4.101,-4.105,-4.105,-4.1067,-4.115,-4.1185,-4.1243,-4.1267,-4.1265,-4.1364,-4.135,-4.1328,-4.1283,-4.137,-4.1407,-4.1422,-4.1227,-4.1226,-4.1225,-4.1224,0,0,-4.0817,-4.0892,-4.091,-4.0941,-4.0998,-4.1046,-4.1115,-4.1176,-4.1209,-4.1254,-4.131,-4.1391,-4.1372,-4.1404,-4.1407,-4.1452,-4.1542,-4.1424,-4.1425,-4.1444,-4.1653,-4.1668,-4.1685,-4.1534,-4.1536,-4.1539,-4.1649,0,-4.092,-4.1044,-4.1057,-4.1166,-4.1226,-4.1218,-4.1277,-4.1318,-4.1337,-4.1388,-4.1408,-4.1465,-4.1435,-4.1455,-4.15,-4.1521,-4.1583,-4.1514,-4.1584,-4.1586,-4.1572,-4.1705,-4.1721,-4.1823,-4.1663,-4.1666,-4.1668,0,-4.1056,-4.111,-4.1226,-4.1278,-4.1303,-4.1356,-4.1414,-4.1464,-4.151,-4.1521,-4.1559,-4.1557,-4.1626,-4.1581,-4.1676,-4.1628,-4.1658,-4.1673,-4.1677,-4.1682,-4.1631,-4.1712,-4.1856,-4.187,-4.169,-4.1689,-4.1687,0,-4.1129,-4.123,-4.1314,-4.134,-4.1402,-4.144,-4.1467,-4.1511,-4.1547,-4.1597,-4.1621,-4.1677,-4.1707,-4.175,-4.1763,-4.1729,-4.1857,-4.1813,-4.1866,-4.1866,-4.1891,-4.1889,-4.204,-4.1913,-4.1913,-4.1913,-4.1912,0,-4.1242,-4.1313,-4.1348,-4.1398,-4.1478,-4.1493,-4.1571,-4.1596,-4.1635,-4.1689,-4.1685,-4.1736,-4.1751,-4.1803,-4.1814,-4.189,-4.1904,-4.1913,-4.1915,-4.1913,-4.1912,-4.1931,-4.1923,-4.1917,-4.1916,-4.1915,-4.1914,0,-4.1336,-4.1362,-4.1452,-4.1506,-4.1521,-4.1577,-4.1622,-4.167,-4.169,-4.1759,-4.1776,-4.1806,-4.1868,-4.1887,-4.196,-4.1967,-4.2057,-4.2053,-4.2042,-4.2042,-4.2094,-4.2088,-4.2261,-4.2284,-4.2144,-4.2145,-4.2146,0,-4.1405,-4.146,-4.1522,-4.156,-4.159,-4.165,-4.1689,-4.1707,-4.1746,-4.1805,-4.1846,-4.1909,-4.1959,-4.2059,-4.2086,-4.2143,-4.2139,-4.2196,-4.2147,-4.2144,-4.2138,-4.2134,-4.214,-4.2204,-4.2205,-4.2207,-4.2207,0,-4.1525,-4.1537,-4.1594,-4.1658,-4.1705,-4.1754,-4.1802,-4.1832,-4.1857,-4.1902,-4.1968,-4.2007,-4.2085,-4.2147,-4.2205,-4.223,-4.2223,-4.2224,-4.2239,-4.2236,-4.2227,-4.2232,-4.2066,-4.2218,-4.2217,-4.2217,-4.2216,-4.2216,-4.1608,-4.1657,-4.1709,-4.1774,-4.1813,-4.1859,-4.1908,-4.1936,-4.1992,-4.2059,-4.2066,-4.2137,-4.2183,-4.2261,-4.229,-4.2345,-4.2327,-4.2349,-4.2355,-4.2359,-4.2364,-4.2221,-4.2355,-4.2355,-4.2355,-4.2354,-4.2354,0,-4.1727,-4.1761,-4.1821,-4.189,-4.1941,-4.1935,-4.1988,-4.203,-4.2094,-4.2139,-4.2191,-4.2267,-4.2328,-4.2362,-4.2422,-4.2459,-4.2457,-4.2474,-4.247,-4.2476,-4.2376,-4.2356,-4.2475,-4.2475,-4.2475,-4.2475,-4.2475,-4.2475,-4.1794,-4.1878,-4.1897,-4.2,-4.2033,-4.2106,-4.2136,-4.2178,-4.2215,-4.2301,-4.2354,-4.2377,-4.2417,-4.2482,-4.2537,-4.2545,-4.2566,-4.2586,-4.2591,-4.2496,-4.2483,-4.2471,-4.2453,-4.2591,-4.2591,-4.2688,-4.2688,-4.2689]},{"header":{"parameterUnit":"m.s-1","parameterCategory":1,"la1":30.2991,"la2":30.254,"lo1":-89.0895,"lo2":-89.0444,"dy":0.0017,"dx":0.0017,"nx":28,"ny":28,"refTime":"2025-08-29T09:00:00:Z","depth":0,"parameterNumber":3,"parameterNumberName":"V-component_of_WINDS"},"data":[0,0,0,0,0,0,0,0,0,0,0,0,0,0,0,0,0,0,0,0,0,0,0,0,0,0,0,0,0,0,0,0,0,0,0,0,0,0,0,0,0,0,0,0,0,0,0,0,0,0,0,0,0,0,0,0,0,0,-2.2457,-2.2459,0,-2.2679,-2.2681,-2.2684,-2.2804,-2.2804,-2.2805,-2.2805,-2.3035,-2.3041,-2.3047,0,0,0,0,0,0,0,0,0,0,0,0,0,-2.2139,-2.2144,-2.2456,-2.2459,-2.2462,-2.2678,-2.2681,-2.2685,-2.2804,-2.2804,-2.2805,-2.2805,-2.3033,-2.304,-2.3047,0,0,0,0,0,0,0,0,0,0,0,0,0,-2.2311,-2.2146,-2.2456,-2.2548,-2.2558,-2.2678,-2.2682,-2.2685,-2.2804,-2.2804,-2.2805,-2.2805,-2.3031,-2.3039,-2.3048,-2.3094,0,0,-2.3075,-2.3079,0,0,0,0,0,0,0,0,-2.2301,-2.2322,-2.2531,-2.2541,-2.2553,-2.2714,-2.2654,-2.2823,-2.2804,-2.2711,-2.2805,-2.2805,-2.2928,-2.2945,-2.2986,-2.3105,-2.3115,-2.3076,-2.3081,-2.3085,-2.3087,0,0,0,0,0,0,0,-2.2289,-2.2313,-2.2545,-2.2534,-2.2548,-2.2579,-2.2604,-2.2687,-2.2815,-2.2719,-2.2728,-2.2753,-2.2934,-2.2977,-2.2993,-2.3118,-2.3076,-2.3083,-2.3089,-2.3092,-2.329,-2.329,0,0,0,0,0,0,-2.2262,-2.2303,-2.2537,-2.2551,-2.2425,-2.2584,-2.2612,-2.2662,-2.2814,-2.2837,-2.2752,-2.2757,-2.2962,-2.2982,-2.3001,-2.3068,-2.3085,-2.3093,-2.3098,-2.329,-2.329,-2.329,0,0,0,0,0,0,-2.2254,-2.2281,-2.2528,-2.243,-2.2463,-2.2589,-2.2645,-2.2666,-2.271,-2.2839,-2.2863,-2.2773,-2.2963,-2.2989,-2.3071,-2.3077,-2.3097,-2.3105,-2.329,-2.329,-2.329,-2.3199,0,0,0,0,0,0,-2.2245,-2.2278,-2.2296,-2.2429,-2.2468,-2.2593,-2.2645,-2.267,-2.2724,-2.2733,-2.2865,-2.2887,-2.2966,-2.3057,-2.308,-2.309,-2.3112,-2.329,-2.329,-2.329,-2.3202,-2.3196,-2.3191,0,0,0,0,0,-2.2233,-2.2261,-2.2296,-2.2324,-2.2493,-2.2593,-2.2616,-2.2705,-2.2724,-2.2744,-2.2828,-2.2883,-2.3072,-2.3064,-2.3091,-2.3104,-2.329,-2.329,-2.329,-2.3205,-2.3197,-2.3191,0,0,0,0,0,0,-2.2126,-2.228,-2.2321,-2.2393,-2.2479,-2.2613,-2.2641,-2.2694,-2.2777,-2.2782,-2.2891,-2.2919,-2.2992,-2.3056,-2.3044,-2.3158,-2.3187,-2.3192,-2.3113,-2.3107,-2.3102,-2.3085,-2.3119,0,0,0,0,0,-2.2111,-2.2178,-2.231,-2.2361,-2.2402,-2.2513,-2.256,-2.2622,-2.2716,-2.2753,-2.2843,-2.2932,-2.3013,-2.3064,-2.3144,-2.3212,-2.3243,-2.3234,-2.3228,-2.3223,-2.3226,-2.3269,-2.3267,-2.329,-2.329,-2.329,0,0,-2.208,-2.2173,-2.2209,-2.2342,-2.2416,-2.2485,-2.2543,-2.2613,-2.2666,-2.2764,-2.2848,-2.2916,-2.3024,-2.3099,-2.3137,-2.3155,-2.3227,-2.3223,-2.3217,-2.3224,-2.3269,-2.3267,-2.3265,-2.3289,-2.3289,-2.3289,0,0,-2.206,-2.2136,-2.2188,-2.2261,-2.2372,-2.2446,-2.2459,-2.2586,-2.2635,-2.272,-2.2796,-2.2861,-2.2996,-2.3071,-2.3126,-2.3136,-2.319,-2.3159,-2.3129,-2.317,-2.3168,-2.3167,-2.3173,-2.3174,-2.3162,-2.3162,-2.3161,0,-2.2008,-2.2114,-2.2208,-2.2274,-2.2332,-2.2423,-2.2478,-2.2544,-2.2676,-2.2714,-2.2732,-2.2906,-2.2985,-2.308,-2.3082,-2.3124,-2.3143,-2.3145,-2.3161,-2.3161,-2.3161,-2.3168,-2.317,-2.3157,-2.3158,-2.3158,-2.3159,0,-2.2046,-2.2118,-2.2147,-2.2272,-2.2333,-2.2392,-2.2497,-2.2547,-2.2604,-2.2677,-2.2764,-2.2861,-2.2965,-2.2992,-2.3048,-2.3096,-2.3104,-2.314,-2.3172,-2.3153,-2.3162,-2.3165,-2.3151,-2.3153,-2.3154,-2.3155,0,0,-2.1965,-2.2142,-2.2151,-2.221,-2.234,-2.2399,-2.2463,-2.2564,-2.2606,-2.2694,-2.2753,-2.2866,-2.2901,-2.2964,-2.3029,-2.3064,-2.3069,-2.3097,-2.3101,-2.309,-2.3131,-2.3104,-2.3105,-2.3105,-2.3106,-2.3106,-2.3122,0,-2.1965,-2.2085,-2.2172,-2.226,-2.2329,-2.2417,-2.2475,-2.2561,-2.2631,-2.2701,-2.278,-2.2859,-2.2897,-2.2936,-2.2975,-2.3059,-2.3079,-2.3059,-2.3163,-2.3165,-2.3134,-2.3109,-2.3081,-2.3091,-2.3126,-2.3126,-2.3127,0,-2.1981,-2.2067,-2.216,-2.2285,-2.2317,-2.2367,-2.2467,-2.2532,-2.2633,-2.2682,-2.2753,-2.282,-2.2895,-2.2918,-2.3024,-2.3009,-2.3056,-2.3104,-2.3107,-2.3122,-2.3146,-2.3125,-2.3096,-2.3098,-2.3132,-2.3132,-2.3132,0,-2.1915,-2.2054,-2.2128,-2.2176,-2.2322,-2.2355,-2.2418,-2.2519,-2.2575,-2.2663,-2.2701,-2.2796,-2.2849,-2.2922,-2.3014,-2.3022,-2.3111,-2.3142,-2.3155,-2.3153,-2.3171,-2.3169,-2.3151,-2.3198,-2.3198,-2.3198,-2.3198,0,-2.1908,-2.1962,-2.2101,-2.2147,-2.2211,-2.2312,-2.2373,-2.2444,-2.2533,-2.2596,-2.2678,-2.2735,-2.2853,-2.2925,-2.2997,-2.3075,-2.3098,-2.3141,-2.316,-2.3134,-2.3129,-2.3168,-2.317,-2.3198,-2.3198,-2.3198,-2.3198,0,-2.1845,-2.194,-2.2028,-2.2159,-2.2194,-2.2236,-2.2349,-2.2398,-2.2473,-2.2551,-2.2576,-2.2693,-2.2783,-2.2881,-2.3004,-2.3053,-2.3127,-2.3153,-2.3092,-2.3103,-2.3112,-2.311,-2.312,-2.3128,-2.3166,-2.3166,-2.3165,0,-2.1835,-2.1879,-2.2015,-2.2063,-2.2123,-2.2198,-2.2256,-2.2356,-2.2413,-2.2532,-2.2567,-2.2663,-2.2745,-2.2884,-2.2981,-2.3076,-2.3106,-2.3103,-2.3121,-2.3095,-2.3109,-2.3105,-2.3111,-2.3098,-2.3097,-2.3096,-2.3095,0,-2.1807,-2.1852,-2.1931,-2.2027,-2.2092,-2.2173,-2.2257,-2.2291,-2.2409,-2.2469,-2.2561,-2.2624,-2.2749,-2.2844,-2.2951,-2.3017,-2.3077,-2.3089,-2.3098,-2.3073,-2.3037,-2.3059,-2.308,-2.3089,-2.3089,-2.309,-2.309,-2.309,-2.1772,-2.1816,-2.1919,-2.2005,-2.2079,-2.2155,-2.2208,-2.229,-2.2368,-2.2477,-2.2532,-2.2624,-2.2727,-2.2876,-2.2941,-2.3016,-2.3034,-2.3046,-2.305,-2.3051,-2.3045,-2.3023,-2.3035,-2.3036,-2.3036,-2.3036,-2.3036,0,-2.1751,-2.1821,-2.1899,-2.2014,-2.2081,-2.213,-2.2226,-2.228,-2.236,-2.2449,-2.2528,-2.2635,-2.2727,-2.2832,-2.2931,-2.2971,-2.3001,-2.2994,-2.2993,-2.3008,-2.3022,-2.3005,-2.2968,-2.2968,-2.2968,-2.2968,-2.2968,-2.2968,-2.1747,-2.1825,-2.1882,-2.1998,-2.207,-2.216,-2.221,-2.2282,-2.2355,-2.247,-2.2547,-2.2614,-2.2711,-2.2818,-2.2906,-2.2935,-2.2968,-2.2953,-2.299,-2.3001,-2.3007,-2.3012,-2.2997,-2.2959,-2.2959,-2.2971,-2.2971,-2.2971]}]]